Weather History for Dallas Redbird, TX

Change the Weather History Date:

Saturday, December 8, 2012

  Actual Average Record
Temperature  
Mean Temperature 61 °F -  
Max Temperature 71 °F 56 °F 78 °F (2007)
Min Temperature 51 °F 38 °F 16 °F (2005)
Degree Days  
Heating Degree Days 4    
Growing Degree Days 11 (Base 50)    
Moisture  
Dew Point 51 °F    
Average Humidity 72    
Maximum Humidity 90    
Minimum Humidity 52    
Precipitation  
Precipitation 0.00 in - - ()
Sea Level Pressure  
Sea Level Pressure 29.84 in    
Wind  
Wind Speed 4 mph (East)    
Max Wind Speed 8 mph    
Max Gust Speed -    
Visibility 8 miles    
Events      
Averages and records for this station are not official NWS values.
T = Trace of Precipitation, MM = Missing Value Source: NWS Daily Summary

Daily Weather History Graph

Daily Weather History Graph

Search for Another Location

Airport:

Trip Planner

Search our weather history database for the weather conditions in past years. The results will help you decide how hot, cold, wet, or windy it might be!

Date:

Astronomy

Dec. 08, 2012 Rise Set
Actual Time 7:17 AM CST 5:21 PM CST
Civil Twilight 6:50 AM CST 5:48 PM CST
Nautical Twilight 6:19 AM CST 6:19 PM CST
Astronomical Twilight 5:49 AM CST 6:49 PM CST
Moon 1:57 AM CST (12/8) 1:40 PM CST (12/8)
Length of Visible Light 10h 58m
Length of Day
10h 03m
Waning Crescent, 28% of the Moon is Illuminated
Dec 8
Waning Crescent
Dec 13
New
Dec 19
First Quarter
Dec 28
Full
Jan 4
Last Quarter

Hourly Weather History & Observations

Time (CST) Temp. Dew Point Humidity Pressure Visibility Wind Dir Wind Speed Gust Speed Precip Events Conditions
12:53 AM 55.9 °F 46.0 °F 69% 29.86 in 10.0 mi North 5.8 mph - N/A   Partly Cloudy
1:53 AM 54.0 °F 45.0 °F 72% 29.86 in 10.0 mi North 3.5 mph - N/A   Clear
2:53 AM 54.0 °F 46.0 °F 75% 29.87 in 10.0 mi North 4.6 mph - N/A   Mostly Cloudy
3:53 AM 53.1 °F 46.0 °F 77% 29.86 in 9.0 mi NNW 3.5 mph - N/A   Mostly Cloudy
4:53 AM 52.0 °F 46.0 °F 80% 29.86 in 8.0 mi NNW 4.6 mph - N/A   Mostly Cloudy
5:51 AM 51.8 °F 46.4 °F 82% 29.89 in 7.0 mi NNW 4.6 mph - N/A   Overcast
5:53 AM 52.0 °F 46.9 °F 83% 29.88 in 7.0 mi NNW 5.8 mph - N/A   Overcast
6:53 AM 52.0 °F 46.9 °F 83% 29.90 in 7.0 mi North 5.8 mph - N/A   Mostly Cloudy
7:53 AM 54.0 °F 46.9 °F 77% 29.90 in 5.0 mi North 4.6 mph - N/A   Haze
8:53 AM 55.9 °F 48.0 °F 75% 29.91 in 5.0 mi North 5.8 mph - N/A   Haze
9:53 AM 57.0 °F 48.0 °F 72% 29.92 in 6.0 mi Calm Calm - N/A   Haze
10:53 AM 60.1 °F 48.0 °F 64% 29.91 in 7.0 mi Calm Calm - N/A   Overcast
11:53 AM 62.1 °F 46.9 °F 58% 29.88 in 8.0 mi ESE 3.5 mph - N/A   Overcast
12:53 PM 64.9 °F 48.0 °F 54% 29.83 in 10.0 mi Calm Calm - N/A   Overcast
1:09 PM 64.4 °F 48.2 °F 56% 29.84 in 10.0 mi Calm Calm - N/A   Overcast
1:53 PM 68.0 °F 50.0 °F 52% 29.81 in 10.0 mi Calm Calm - N/A   Clear
2:53 PM 71.1 °F 53.1 °F 53% 29.79 in 10.0 mi Variable 4.6 mph - N/A   Clear
3:26 PM 69.8 °F 55.4 °F 60% 29.79 in 10.0 mi SSE 5.8 mph - N/A   Mostly Cloudy
3:53 PM 71.1 °F 55.9 °F 59% 29.78 in 10.0 mi SE 6.9 mph - N/A   Scattered Clouds
4:53 PM 70.0 °F 55.9 °F 61% 29.78 in 10.0 mi SSE 5.8 mph - N/A   Clear
5:53 PM 64.9 °F 55.9 °F 73% 29.78 in 10.0 mi SSE 5.8 mph - N/A   Clear
6:53 PM 64.9 °F 57.9 °F 78% 29.78 in 10.0 mi SSE 4.6 mph - N/A   Clear
7:53 PM 63.0 °F 57.9 °F 84% 29.78 in 9.0 mi South 5.8 mph - N/A   Clear
8:53 PM 63.0 °F 59.0 °F 87% 29.78 in 8.0 mi SSE 5.8 mph - N/A   Clear
9:53 PM 64.0 °F 60.1 °F 87% 29.78 in 8.0 mi South 5.8 mph - N/A   Clear
10:53 PM 64.9 °F 61.0 °F 87% 29.77 in 7.0 mi South 6.9 mph - N/A   Clear
11:53 PM 64.9 °F 62.1 °F 90% 29.77 in 6.0 mi South 8.1 mph - N/A   Clear